Waupaca, WI

7:53 PM CST on February 25, 2017 (GMT -0600)
Waupaca Municipal

Weather History for KPCZ - November, 2011

Change the Weather History Date:

Thursday, November 10, 2011

  Actual Average Record
Temperature  
Mean Temperature 34 °F -  
Max Temperature 37 °F 45 °F 67 °F (2016)
Min Temperature 30 °F 29 °F 10 °F (1957)
Degree Days  
Heating Degree Days 32    
Moisture  
Dew Point 30 °F    
Average Humidity 82    
Maximum Humidity 93    
Minimum Humidity 70    
Precipitation  
Precipitation 0.00 in - - ()
Sea Level Pressure  
Sea Level Pressure 29.90 in    
Wind  
Wind Speed 9 mph (West)    
Max Wind Speed 15 mph    
Max Gust Speed 20 mph    
Visibility 9 miles    
Events Snow    
Averages and records for this station are not official NWS values.
T = Trace of Precipitation, MM = Missing Value Source: NWS Daily Summary

Daily Weather History Graph

Daily Weather History Graph

Search for Another Location

Airport or City:

Trip Planner

Search our weather history database for the weather conditions in past years. The results will help you decide how hot, cold, wet, or windy it might be!

Date:

Astronomy

Nov. 10, 2011 Rise Set
Actual Time 6:44 AM CST 4:34 PM CST
Civil Twilight 6:13 AM CST 5:05 PM CST
Nautical Twilight 5:39 AM CST 5:40 PM CST
Astronomical Twilight 5:05 AM CST 6:14 PM CST
Moon 4:19 PM CST (11/10) 6:39 AM CST (11/10)
Length of Visible Light 10h 51m
Length of Day
9h 49m
Full, 100% of the Moon is Illuminated
Nov 10
Full
Nov 10
Full
Nov 18
Last Quarter
Nov 25
New
Dec 2
First Quarter

Hourly Weather History & Observations

Time (CST) Temp. Windchill Dew Point Humidity Pressure Visibility Wind Dir Wind Speed Gust Speed Precip Events Conditions
12:15 AM 33.8 °F 26.4 °F 30.2 °F 87% 29.83 in 10.0 mi West 9.2 mph - N/A   Overcast
12:35 AM 33.8 °F 25.8 °F 30.2 °F 87% 29.83 in 10.0 mi West 10.4 mph - N/A   Overcast
12:55 AM 33.8 °F 26.4 °F 28.4 °F 81% 29.83 in 10.0 mi West 9.2 mph - N/A   Scattered Clouds
1:15 AM 33.8 °F 24.8 °F 28.4 °F 81% 29.83 in 10.0 mi West 12.7 mph - N/A   Clear
1:35 AM 32.0 °F 23.6 °F 28.4 °F 87% 29.83 in 10.0 mi West 10.4 mph - N/A   Clear
1:55 AM 32.0 °F 24.2 °F 28.4 °F 87% 29.84 in 10.0 mi West 9.2 mph - N/A   Clear
2:15 AM 32.0 °F 24.2 °F 28.4 °F 87% 29.84 in 10.0 mi West 9.2 mph - N/A   Clear
2:35 AM 32.0 °F 25.6 °F 28.4 °F 87% 29.84 in 10.0 mi West 6.9 mph - N/A   Clear
3:15 AM 32.0 °F 24.8 °F 26.6 °F 80% 29.84 in 10.0 mi WSW 8.1 mph - N/A   Clear
3:35 AM 30.2 °F 22.6 °F 26.6 °F 86% 29.84 in 10.0 mi WSW 8.1 mph - N/A   Scattered Clouds
3:55 AM 30.2 °F 22.6 °F 26.6 °F 86% 29.84 in 10.0 mi West 8.1 mph - N/A   Scattered Clouds
4:15 AM 32.0 °F 24.8 °F 26.6 °F 80% 29.84 in 10.0 mi WSW 8.1 mph - N/A   Mostly Cloudy
4:35 AM 32.0 °F 24.2 °F 28.4 °F 87% 29.84 in 10.0 mi WSW 9.2 mph - N/A   Overcast
4:55 AM 32.0 °F 24.2 °F 28.4 °F 87% 29.84 in 10.0 mi WSW 9.2 mph - N/A   Overcast
5:15 AM 32.0 °F 24.8 °F 28.4 °F 87% 29.84 in 10.0 mi WSW 8.1 mph - N/A   Overcast
5:35 AM 32.0 °F 24.8 °F 30.2 °F 93% 29.84 in 10.0 mi WSW 8.1 mph - N/A   Overcast
6:15 AM 32.0 °F 24.8 °F 30.2 °F 93% 29.84 in 10.0 mi WSW 8.1 mph - N/A   Overcast
6:35 AM 33.8 °F 27.0 °F 30.2 °F 87% 29.84 in 10.0 mi West 8.1 mph - N/A   Overcast
7:35 AM 33.8 °F 27.0 °F 30.2 °F 87% 29.86 in 10.0 mi West 8.1 mph - N/A Snow Light Snow
7:55 AM 33.8 °F 27.0 °F 30.2 °F 87% 29.86 in 10.0 mi West 8.1 mph - N/A Snow Light Snow
8:15 AM 33.8 °F 27.7 °F 32.0 °F 93% 29.86 in 5.0 mi West 6.9 mph - N/A Snow Light Snow
8:35 AM 33.8 °F 27.0 °F 32.0 °F 93% 29.87 in 5.0 mi West 8.1 mph - N/A Snow Light Snow
8:55 AM 33.8 °F 27.0 °F 32.0 °F 93% 29.87 in 5.0 mi West 8.1 mph - N/A Snow Light Snow
9:15 AM 33.8 °F 27.0 °F 32.0 °F 93% 29.87 in 7.0 mi West 8.1 mph - N/A Snow Light Snow
9:55 AM 35.6 °F 29.2 °F 32.0 °F 87% 29.88 in 1.5 mi West 8.1 mph - N/A Snow Light Snow
10:15 AM 35.6 °F 28.0 °F 32.0 °F 87% 29.88 in 4.0 mi West 10.4 mph - N/A Snow Light Snow
10:35 AM 35.6 °F 29.2 °F 32.0 °F 87% 29.88 in 5.0 mi West 8.1 mph - N/A Snow Light Snow
12:35 PM 37.4 °F 30.8 °F 32.0 °F 81% 29.88 in 10.0 mi WNW 9.2 mph - N/A   Mostly Cloudy
12:55 PM 37.4 °F 30.3 °F 32.0 °F 81% 29.88 in 10.0 mi WNW 10.4 mph - N/A   Overcast
1:15 PM 37.4 °F 30.3 °F 32.0 °F 81% 29.88 in 10.0 mi WNW 10.4 mph - N/A   Mostly Cloudy
1:35 PM 37.4 °F 29.8 °F 30.2 °F 75% 29.89 in 10.0 mi WNW 11.5 mph 16.1 mph N/A   Overcast
1:55 PM 37.4 °F 28.5 °F 30.2 °F 75% 29.89 in 10.0 mi WNW 15.0 mph 19.6 mph N/A   Overcast
2:15 PM 37.4 °F 31.4 °F 30.2 °F 75% 29.89 in 10.0 mi WNW 8.1 mph 16.1 mph N/A   Overcast
2:35 PM 37.4 °F 29.3 °F 30.2 °F 75% 29.90 in 10.0 mi West 12.7 mph 19.6 mph N/A   Overcast
3:15 PM 37.4 °F 30.8 °F 30.2 °F 75% 29.92 in 10.0 mi West 9.2 mph - N/A   Overcast
3:35 PM 37.4 °F 29.3 °F 30.2 °F 75% 29.92 in 10.0 mi West 12.7 mph 17.3 mph N/A   Overcast
3:55 PM 37.4 °F 30.8 °F 30.2 °F 75% 29.93 in 10.0 mi West 9.2 mph 16.1 mph N/A   Mostly Cloudy
4:15 PM 37.4 °F 30.3 °F 30.2 °F 75% 29.93 in 10.0 mi West 10.4 mph 17.3 mph N/A   Scattered Clouds
4:35 PM 37.4 °F 29.8 °F 30.2 °F 75% 29.94 in 10.0 mi West 11.5 mph 16.1 mph N/A   Mostly Cloudy
4:55 PM 37.4 °F 30.8 °F 30.2 °F 75% 29.94 in 10.0 mi West 9.2 mph - N/A   Overcast
5:15 PM 37.4 °F 30.8 °F 30.2 °F 75% 29.95 in 10.0 mi West 9.2 mph - N/A   Overcast
5:35 PM 37.4 °F 31.4 °F 30.2 °F 75% 29.95 in 10.0 mi West 8.1 mph - N/A   Overcast
5:55 PM 37.4 °F 30.8 °F 28.4 °F 70% 29.95 in 10.0 mi West 9.2 mph - N/A   Overcast
6:15 PM 35.6 °F 29.9 °F 30.2 °F 81% 29.95 in 10.0 mi West 6.9 mph - N/A   Overcast
6:55 PM 35.6 °F 29.2 °F 28.4 °F 75% 29.95 in 10.0 mi West 8.1 mph - N/A   Overcast
7:15 PM 35.6 °F 29.9 °F 30.2 °F 81% 29.95 in 10.0 mi West 6.9 mph - N/A   Overcast
7:35 PM 35.6 °F 29.2 °F 30.2 °F 81% 29.96 in 10.0 mi West 8.1 mph - N/A   Overcast
7:55 PM 35.6 °F 29.2 °F 30.2 °F 81% 29.96 in 10.0 mi West 8.1 mph - N/A   Overcast
8:15 PM 35.6 °F 29.2 °F 28.4 °F 75% 29.96 in 10.0 mi West 8.1 mph - N/A   Overcast
8:35 PM 35.6 °F 28.6 °F 28.4 °F 75% 29.96 in 10.0 mi West 9.2 mph - N/A   Overcast
8:55 PM 35.6 °F 29.2 °F 28.4 °F 75% 29.96 in 10.0 mi West 8.1 mph - N/A   Overcast
9:15 PM 35.6 °F 28.6 °F 28.4 °F 75% 29.96 in 10.0 mi West 9.2 mph - N/A   Mostly Cloudy
9:35 PM 33.8 °F 27.0 °F 28.4 °F 81% 29.96 in 10.0 mi West 8.1 mph - N/A   Mostly Cloudy
9:55 PM 33.8 °F 28.6 °F 28.4 °F 81% 29.96 in 10.0 mi West 5.8 mph - N/A   Overcast
10:15 PM 33.8 °F 27.7 °F 30.2 °F 87% 29.96 in 10.0 mi West 6.9 mph - N/A   Overcast
10:35 PM 33.8 °F 28.6 °F 28.4 °F 81% 29.96 in 10.0 mi West 5.8 mph - N/A   Mostly Cloudy
10:55 PM 33.8 °F 27.7 °F 28.4 °F 81% 29.95 in 10.0 mi West 6.9 mph - N/A   Overcast
11:15 PM 33.8 °F 27.7 °F 30.2 °F 87% 29.95 in 10.0 mi West 6.9 mph - N/A   Overcast
11:35 PM 33.8 °F 27.7 °F 30.2 °F 87% 29.95 in 10.0 mi West 6.9 mph - N/A   Overcast
11:55 PM 33.8 °F 27.7 °F 30.2 °F 87% 29.95 in 10.0 mi West 6.9 mph - N/A   Overcast